Temperature
18 18 19 19 19 19 19 19 19 19 19 19 19 19 19 19 19 19 19 19 19 19 19 18 18 18 18 18 18 18 18 18 18 18 18 18 18 18 18 18 18 18 18
18 18 19 19 19 19 19 19 19 19 19 19 19 19 19 19 19 19 19 19 19 19 19 18 18 18 18 18 18 18 18 18 18 18 18 18 18 18 18 18 18 18 18
19 18 19 19 19 19 19 19 19 19 19 19 19 19 19 19 19 19 19 18 18 18 18 18 18 18 18 18 18 18 18 18 18 18 18 18 18 18 18 18 18 18 17
19 19 19 19 19 19 19 19 19 19 19 19 19 19 19 19 19 19 19 18 18 18 18 18 18 18 18 18 18 18 18 18 18 18 18 18 18 18 18 18 18 17 17
19 19 19 19 19 19 19 19 19 19 19 19 19 19 19 19 19 18 18 18 18 18 18 18 18 18 18 18 18 18 18 18 18 18 18 18 18 18 17 17 17 17 17
19 19 19 19 19 19 19 19 19 19 19 19 19 19 19 19 19 18 18 18 18 18 18 18 18 18 18 18 18 18 18 18 18 18 18 18 18 18 18 17 18 17 17
19 19 19 19 19 19 19 19 19 19 19 19 19 19 19 18 18 18 18 18 18 18 18 18 18 18 18 18 18 18 18 18 18 18 18 18 18 18 18 18 17 17 17
19 19 19 19 19 19 19 19 19 19 19 19 19 19 18 18 18 18 18 18 18 18 18 18 18 18 18 18 18 18 18 18 18 18 18 18 18 18 18 18 17 17 17
19 19 19 19 19 19 19 19 19 19 19 19 19 18 18 18 18 18 18 18 18 18 18 18 18 18 18 18 18 18 18 18 18 18 18 18 18 18 18 18 17 17 17
19 19 19 19 19 19 19 19 19 19 19 18 18 18 18 18 18 18 18 18 18 18 18 18 18 18 18 18 18 18 18 18 18 18 18 18 18 18 18 18 17 17 17
19 19 19 19 19 19 19 18 18 18 18 18 18 18 18 18 18 18 18 18 18 18 18 18 18 18 18 18 18 18 18 18 18 18 18 18 18 18 18 18 17 17 17
19 19 19 19 19 19 19 18 18 18 18 18 18 18 18 18 18 18 18 18 18 18 18 18 18 18 18 18 18 18 18 18 18 18 18 18 18 18 18 18 17 17 17
19 19 19 19 19 19 19 18 18 18 18 18 18 18 18 18 18 18 18 18 18 18 18 18 18 18 18 18 18 18 18 18 18 18 18 18 18 18 18 18 17 17 17
19 19 19 19 19 19 19 19 19 19 18 18 18 18 18 18 18 18 18 18 18 18 18 18 18 18 18 18 18 18 18 18 18 18 18 18 18 18 18 18 17 17 17
19 19 19 19 19 19 19 19 19 19 19 18 18 18 18 18 18 18 18 18 18 18 18 18 18 18 18 18 18 18 18 18 18 18 18 18 18 18 18 18 17 17 17
20 19 19 19 19 19 19 19 19 19 19 19 18 18 18 18 18 18 18 18 18 18 18 18 18 18 18 18 18 18 18 18 18 18 18 18 18 18 18 18 17 17 17
20 20 19 19 19 19 19 19 19 19 19 19 18 18 18 18 18 18 18 18 18 18 18 18 18 18 18 18 18 18 18 18 18 18 18 18 18 18 18 18 18 17 17
20 20 20 19 19 19 19 19 19 19 19 18 18 18 18 18 18 18 18 18 18 18 18 18 18 18 18 18 18 18 18 18 18 18 18 18 18 18 18 18 18 18 18
20 20 20 19 19 19 19 19 19 19 19 18 18 18 18 18 18 18 18 18 18 18 18 18 18 18 18 18 18 18 18 18 18 18 18 18 18 18 18 18 18 18 18
20 20 20 20 19 19 19 19 19 19 19 18 18 18 18 18 18 18 18 18 18 18 18 18 18 18 18 18 18 18 18 18 18 18 18 18 18 18 18 18 18 18 18
20 20 20 20 20 19 19 19 19 19 19 19 19 19 18 18 18 18 18 18 18 18 18 18 18 18 18 18 18 18 19 19 18 18 18 18 18 18 18 18 18 18 18
20 20 20 20 20 19 19 19 19 19 19 19 19 19 19 18 18 18 18 18 18 18 18 18 18 18 18 18 18 18 18 18 18 18 18 18 18 18 18 18 18 18 18
20 20 20 20 20 20 19 19 19 19 19 19 19 19 19 19 18 18 18 18 18 18 18 18 18 18 18 18 18 17 18 18 18 18 18 18 18 18 18 18 18 18 18
21 21 20 20 20 20 20 19 19 19 19 19 19 19 19 19 18 18 18 18 18 18 18 18 18 18 18 18 18 18 17 17 17 18 18 18 18 18 18 18 18 18 18
21 21 21 20 20 20 20 19 19 19 19 19 19 19 19 19 19 18 18 18 18 18 18 18 18 18 18 18 17 17 17 17 17 17 18 18 18 18 18 18 18 18 18
21 21 21 20 20 20 20 20 19 19 19 19 19 19 19 19 19 19 18 18 18 18 18 18 18 18 18 18 17 17 17 17 17 17 17 17 18 18 18 18 18 18 18
Wind_Speed
3 6 14 15 16 16 17 18 19 19 19 18 18 17 17 17 16 15 15 14 14 14 13 13 13 13 13 12 12 12 12 11 11 12 12 12 12 12 12 13 13 12 13
6 9 15 15 16 16 16 17 18 18 18 17 17 16 16 15 15 14 14 13 13 13 13 12 12 12 12 12 11 11 11 10 10 11 11 11 11 11 12 12 12 11 12
8 10 14 15 15 15 15 16 16 17 16 16 16 15 15 14 14 13 13 13 12 12 12 12 12 11 11 11 10 10 10 9 9 10 9 8 9 10 10 11 12 12 12
9 10 12 15 15 14 14 15 15 16 15 15 15 14 14 13 13 13 12 12 12 11 11 11 10 10 10 10 9 8 8 8 8 8 7 6 6 9 10 10 11 11 11
8 10 12 14 14 14 13 14 14 15 14 14 13 13 13 12 11 11 11 11 10 10 10 10 9 9 9 8 8 7 7 7 7 6 6 5 6 8 9 10 10 10 10
7 9 11 14 14 13 13 13 13 13 13 12 12 12 11 11 10 10 10 9 9 8 8 9 8 8 7 7 7 6 6 5 5 5 5 5 5 7 8 9 9 9 10
6 7 10 12 12 12 12 12 12 12 11 11 10 10 10 9 8 8 8 8 7 7 7 7 7 6 6 5 5 4 4 5 5 4 4 4 5 6 7 8 9 9 9
6 6 9 12 11 11 11 11 10 10 10 9 9 9 8 8 7 7 6 6 6 5 5 5 5 4 4 3 3 3 4 4 4 4 4 4 6 7 8 8 9 9 9
6 6 6 8 9 10 10 9 9 9 9 8 8 7 7 7 6 5 5 4 4 4 3 3 3 2 2 2 2 2 3 3 4 3 4 4 6 7 8 8 9 9 8
5 4 4 5 6 6 7 8 8 8 7 7 6 6 6 5 5 4 3 3 2 2 1 2 1 1 0 1 1 1 2 3 4 4 3 4 6 7 8 8 9 8 8
5 3 3 3 4 4 5 6 6 6 6 5 4 4 3 3 2 2 1 1 1 1 1 1 1 1 1 0 0 0 2 3 3 4 4 6 7 8 8 9 9 9 9
6 4 4 3 3 3 4 3 3 3 3 3 2 2 2 2 1 0 0 1 1 1 2 2 3 3 2 1 1 0 1 3 3 4 5 7 8 8 9 9 10 9 9
5 5 5 4 3 3 2 2 2 2 2 2 2 2 2 1 1 1 2 3 3 3 3 3 4 3 2 1 1 1 2 3 3 4 6 8 8 9 10 10 10 10 9
5 5 4 4 3 3 3 2 2 2 2 2 2 2 2 1 0 1 1 3 3 2 3 3 3 3 3 1 1 2 2 3 4 5 6 8 9 10 10 10 11 11 10
6 6 5 5 4 3 3 2 3 3 3 3 3 3 4 2 1 1 1 3 3 3 2 2 2 3 3 2 1 2 2 4 5 5 6 8 10 10 11 11 11 11 10
8 7 6 5 5 4 3 2 2 3 3 3 3 4 4 3 2 1 1 2 3 3 2 2 2 2 2 2 2 2 3 4 5 6 6 6 9 11 11 12 11 11 11
7 7 6 6 5 4 4 3 3 3 3 3 4 4 4 4 4 2 1 2 3 3 2 2 2 1 1 1 2 2 2 4 4 5 5 5 6 9 11 12 12 12 12
7 7 7 7 6 5 4 3 3 3 3 4 4 4 5 5 4 3 2 2 3 2 1 1 1 1 1 1 2 2 2 2 4 4 5 5 6 6 9 12 13 13 13
8 8 7 6 7 6 5 3 3 3 3 4 4 4 5 5 5 4 2 3 2 0 0 1 0 0 1 2 2 2 2 2 3 3 4 5 7 7 8 10 12 13 13
7 7 7 6 6 5 3 2 1 1 1 3 4 4 5 5 5 4 3 2 1 1 1 1 1 0 1 1 2 2 2 2 2 2 3 4 5 7 8 9 9 10 13
7 7 7 7 6 5 3 3 2 2 2 2 3 4 5 5 5 4 2 2 1 1 1 1 1 0 1 0 1 3 3 2 2 2 2 3 4 6 7 8 8 8 9
9 8 8 7 7 6 5 3 3 2 2 2 1 2 4 5 5 4 3 2 2 1 1 1 1 0 0 0 1 1 3 4 2 2 2 2 3 3 5 6 7 8 8
9 10 9 8 7 7 5 3 2 2 1 0 1 1 3 4 4 4 4 3 2 2 2 2 2 1 1 1 1 1 0 2 3 2 2 2 2 2 3 4 6 7 8
11 9 8 8 7 6 6 5 5 4 4 4 2 2 2 3 3 4 4 4 3 2 3 3 2 2 2 1 1 1 2 2 1 3 3 2 3 3 3 3 4 5 6
9 8 7 7 6 6 6 7 6 4 4 2 2 2 2 2 2 3 4 3 3 3 4 3 2 3 2 2 2 1 1 1 2 2 3 3 3 3 3 3 3 4 5
8 7 7 7 6 6 6 6 6 6 4 3 3 3 3 2 2 3 3 3 4 4 4 4 4 4 3 3 2 2 2 2 2 2 3 3 3 3 3 3 2 3 4
Wind_Direction
133 135 123 117 112 109 109 111 112 112 112 112 112 112 112 113 113 113 113 113 111 109 109 109 108 108 108 109 110 109 110 113 116 117 116 114 116 117 116 114 113 115 118
138 134 126 121 116 112 111 111 113 112 112 113 112 111 112 113 113 112 112 112 112 111 109 109 109 109 110 110 108 109 109 112 116 118 118 116 116 119 120 119 119 121 122
129 131 127 123 119 116 114 113 113 113 114 114 114 114 114 113 112 111 111 113 112 111 111 111 110 111 112 110 108 108 109 113 118 118 112 110 119 124 125 127 127 128 127
129 128 129 127 123 120 118 117 116 117 117 117 117 116 115 114 113 111 111 112 110 111 111 112 111 113 112 109 108 108 111 115 117 114 106 110 122 131 131 132 132 133 133
121 127 133 130 127 124 123 121 120 120 119 118 117 116 116 114 114 112 112 113 112 112 113 114 113 113 112 112 110 109 116 120 121 112 109 110 117 133 136 138 137 139 140
119 129 138 133 131 128 127 125 124 123 122 120 118 117 116 116 116 114 112 113 113 114 114 115 115 114 113 112 111 110 114 122 120 113 122 128 133 141 142 143 144 146 147
123 131 141 137 136 135 133 130 129 127 125 122 120 118 120 119 119 118 114 114 113 111 112 114 116 116 114 113 113 111 114 126 122 125 135 145 154 152 150 151 152 151 152
132 136 144 144 142 142 140 137 136 133 132 128 125 123 123 122 122 119 116 118 117 113 112 114 115 113 113 111 112 111 121 126 131 134 142 156 165 161 158 155 156 156 158
130 132 137 146 148 149 147 145 144 141 139 136 133 132 128 124 123 122 123 124 123 117 120 118 117 108 100 99 107 114 146 136 135 144 157 166 173 171 167 165 163 163 164
128 130 136 138 141 146 154 157 156 151 147 146 143 142 138 134 130 133 134 140 143 142 150 146 138 117 61 76 107 116 151 135 147 163 172 183 184 179 178 177 175 174 174
150 147 142 137 139 149 161 171 166 162 159 155 156 151 136 110 113 128 140 153 172 219 260 256 293 324 25 46 271 137 150 153 166 180 188 198 196 191 188 187 185 187 187
172 170 160 154 157 159 174 166 159 156 151 146 144 132 118 115 121 113 250 264 290 308 322 338 346 356 17 355 324 7 166 183 187 197 205 210 208 203 199 196 196 197 198
180 182 177 174 171 167 165 151 149 145 144 158 177 164 133 110 38 357 346 332 333 344 357 2 6 0 0 326 296 269 223 210 214 214 216 220 217 212 208 205 204 206 208
177 190 183 177 175 187 183 178 165 167 175 197 207 183 171 176 306 326 334 314 322 337 343 345 342 336 333 306 251 248 237 225 226 223 225 223 218 218 215 214 214 214 215
185 191 189 178 183 190 185 197 183 192 198 205 215 215 205 195 217 287 312 312 318 314 317 327 333 334 336 333 301 256 245 238 236 229 228 226 224 224 224 224 225 223 223
192 193 187 183 185 181 181 188 193 197 198 197 225 227 217 210 209 213 286 298 298 293 294 291 301 309 319 319 297 272 261 253 241 232 230 231 232 228 228 231 230 228 227
191 186 184 187 178 176 186 196 191 199 193 192 222 228 221 213 215 209 241 277 281 286 297 301 311 322 306 304 303 292 273 256 246 236 231 231 237 235 232 234 234 233 233
180 182 190 192 180 182 186 190 191 199 200 205 219 225 223 219 216 213 222 259 274 284 312 293 302 330 320 315 305 303 293 272 255 239 228 229 232 236 238 239 236 233 235
184 183 186 188 182 185 180 176 187 196 210 215 218 224 227 225 217 209 224 247 256 247 301 280 290 223 289 312 302 299 298 278 266 250 237 234 236 238 241 245 240 234 235
183 183 185 183 181 168 157 151 143 197 224 225 224 230 228 225 216 209 227 241 220 202 247 243 249 268 248 289 310 318 304 287 268 255 247 240 240 243 243 242 241 240 239
179 185 187 184 180 165 160 168 177 214 227 232 233 237 234 229 218 206 223 229 204 206 244 245 217 293 328 343 6 335 321 298 275 256 260 253 248 246 244 241 240 239 242
184 189 191 191 184 182 182 173 177 178 200 218 242 249 237 225 220 220 209 216 211 202 258 254 191 155 314 81 101 21 339 334 330 303 285 264 269 260 251 244 234 234 237
189 192 195 193 191 189 179 152 135 102 61 292 242 243 241 227 227 226 212 201 205 204 232 242 204 173 248 281 158 149 155 279 308 312 296 298 299 278 271 264 245 240 236
198 192 190 189 189 188 175 171 175 185 203 218 219 232 249 231 224 221 214 203 202 211 230 240 211 197 196 236 253 214 209 198 235 310 312 305 304 291 283 271 256 242 234
193 188 186 183 189 186 181 182 184 199 210 215 213 227 245 249 240 232 218 201 205 218 230 233 215 198 201 203 210 204 207 209 213 224 290 313 315 292 283 279 263 246 236
184 183 179 182 194 188 183 184 190 199 201 200 216 225 237 242 242 235 217 208 213 224 231 231 221 203 207 205 203 194 193 201 209 206 244 277 292 292 286 281 272 259 246
Height
1524 1525 1526 1527 1529 1530 1531 1532 1533 1534 1535 1536 1538 1539 1540 1541 1542 1543 1544 1545 1546 1547 1549 1550 1551 1552 1553 1554 1555 1556 1557 1558 1558 1559 1560 1561 1561 1562 1562 1563 1564 1565 1566
1524 1526 1528 1530 1531 1532 1534 1535 1536 1537 1538 1539 1540 1541 1543 1543 1544 1545 1546 1547 1548 1549 1551 1552 1553 1554 1555 1555 1557 1557 1558 1559 1560 1560 1561 1562 1563 1563 1564 1565 1565 1566 1567
1526 1528 1530 1532 1534 1535 1536 1538 1539 1540 1540 1542 1543 1544 1545 1546 1547 1548 1548 1549 1550 1551 1552 1553 1554 1555 1556 1557 1558 1559 1560 1560 1561 1562 1562 1563 1564 1565 1565 1566 1567 1568 1569
1528 1530 1532 1534 1536 1537 1539 1540 1541 1542 1543 1544 1545 1546 1547 1548 1549 1550 1551 1552 1552 1553 1554 1555 1556 1557 1558 1559 1560 1561 1561 1562 1563 1563 1564 1565 1565 1566 1567 1568 1568 1569 1570
1530 1532 1534 1536 1538 1539 1541 1542 1544 1545 1546 1546 1547 1548 1549 1550 1551 1552 1553 1554 1554 1555 1556 1557 1558 1559 1559 1560 1561 1562 1563 1564 1564 1565 1565 1566 1567 1567 1568 1569 1569 1570 1571
1532 1534 1536 1538 1540 1541 1543 1544 1546 1547 1548 1549 1550 1551 1551 1552 1553 1554 1555 1556 1556 1557 1558 1559 1559 1560 1561 1562 1563 1564 1564 1565 1565 1566 1567 1567 1568 1568 1569 1570 1570 1571 1572
1534 1536 1538 1540 1542 1543 1545 1546 1547 1549 1550 1551 1552 1553 1553 1554 1555 1556 1556 1557 1558 1559 1559 1560 1561 1562 1562 1563 1564 1565 1566 1566 1567 1567 1568 1568 1569 1569 1570 1570 1571 1572 1572
1535 1538 1540 1542 1543 1545 1546 1548 1549 1550 1551 1552 1554 1554 1555 1556 1557 1557 1558 1559 1559 1560 1561 1561 1562 1563 1564 1565 1566 1566 1567 1567 1568 1568 1568 1569 1569 1570 1570 1571 1571 1572 1573
1537 1539 1541 1543 1545 1547 1548 1549 1551 1552 1553 1554 1555 1556 1557 1558 1558 1559 1560 1560 1561 1561 1562 1563 1563 1564 1565 1566 1566 1567 1568 1568 1568 1569 1569 1569 1570 1570 1571 1571 1572 1573 1573
1539 1541 1543 1545 1546 1548 1549 1551 1552 1553 1555 1556 1557 1558 1558 1559 1560 1560 1561 1562 1562 1562 1563 1564 1564 1565 1566 1566 1567 1567 1568 1568 1569 1569 1570 1570 1570 1571 1571 1572 1572 1573 1574
1540 1542 1544 1546 1548 1549 1551 1552 1553 1555 1556 1557 1558 1559 1560 1560 1561 1562 1562 1563 1563 1563 1564 1565 1565 1566 1566 1567 1567 1568 1568 1568 1569 1569 1570 1570 1570 1571 1571 1572 1572 1573 1574
1540 1543 1545 1547 1549 1551 1552 1553 1554 1555 1557 1558 1559 1560 1561 1562 1562 1563 1564 1564 1564 1564 1565 1565 1566 1566 1567 1567 1568 1568 1568 1569 1569 1569 1570 1570 1570 1571 1571 1571 1572 1573 1573
1542 1544 1546 1548 1550 1551 1553 1554 1555 1556 1558 1559 1560 1562 1562 1563 1564 1564 1565 1565 1565 1566 1566 1566 1567 1567 1567 1568 1568 1568 1569 1569 1569 1569 1570 1570 1570 1570 1571 1571 1572 1572 1573
1543 1545 1547 1549 1551 1552 1554 1555 1556 1557 1558 1560 1562 1562 1563 1564 1565 1565 1565 1566 1567 1567 1567 1567 1567 1568 1568 1568 1568 1569 1569 1569 1569 1569 1569 1569 1570 1570 1570 1571 1571 1572 1572
1543 1546 1548 1550 1551 1553 1554 1556 1557 1558 1559 1561 1562 1563 1564 1565 1565 1566 1566 1567 1567 1567 1568 1568 1568 1568 1568 1568 1568 1568 1568 1568 1568 1568 1569 1569 1569 1569 1570 1570 1571 1571 1572
1544 1546 1548 1550 1552 1553 1555 1556 1557 1559 1560 1561 1563 1564 1565 1565 1566 1566 1567 1567 1567 1568 1568 1568 1568 1568 1568 1568 1568 1568 1568 1568 1568 1568 1568 1568 1568 1569 1569 1569 1570 1570 1571
1544 1546 1548 1551 1552 1554 1555 1556 1558 1559 1560 1562 1563 1564 1565 1565 1566 1566 1567 1567 1568 1568 1567 1568 1568 1567 1567 1567 1567 1567 1567 1567 1567 1567 1567 1567 1567 1568 1568 1568 1569 1569 1569
1544 1546 1549 1551 1552 1554 1555 1557 1558 1560 1561 1562 1563 1564 1565 1566 1566 1566 1567 1567 1567 1567 1567 1567 1567 1567 1567 1567 1567 1566 1566 1566 1566 1566 1566 1566 1566 1566 1567 1567 1567 1567 1568
1544 1546 1548 1550 1552 1554 1555 1557 1558 1560 1561 1562 1563 1564 1565 1565 1566 1566 1566 1567 1567 1567 1567 1567 1567 1567 1566 1566 1566 1565 1565 1565 1564 1564 1564 1564 1564 1565 1565 1566 1566 1566 1566
1543 1546 1548 1550 1552 1553 1555 1557 1558 1559 1560 1561 1562 1563 1564 1565 1565 1565 1565 1566 1566 1566 1566 1566 1566 1566 1566 1565 1565 1564 1564 1563 1563 1563 1563 1563 1563 1563 1564 1564 1564 1564 1564
1542 1544 1546 1548 1550 1552 1554 1555 1557 1558 1559 1560 1561 1562 1563 1563 1564 1564 1565 1565 1565 1566 1566 1565 1565 1565 1565 1564 1564 1563 1562 1562 1561 1561 1561 1561 1561 1562 1562 1562 1562 1562 1563
1539 1542 1544 1547 1549 1551 1552 1554 1556 1557 1558 1559 1560 1561 1561 1562 1563 1563 1564 1564 1565 1565 1565 1565 1565 1564 1564 1564 1563 1562 1561 1562 1560 1560 1560 1560 1560 1560 1560 1560 1560 1560 1561
1537 1539 1542 1545 1547 1549 1551 1553 1554 1556 1557 1558 1558 1559 1560 1561 1562 1562 1563 1563 1563 1563 1563 1563 1563 1563 1563 1562 1562 1562 1561 1560 1560 1559 1559 1559 1559 1558 1558 1558 1558 1558 1558
1534 1538 1541 1543 1545 1547 1549 1551 1552 1553 1554 1556 1557 1558 1559 1559 1560 1561 1561 1562 1562 1562 1562 1562 1562 1561 1561 1561 1561 1561 1561 1560 1560 1558 1558 1558 1557 1557 1556 1556 1556 1556 1556
1533 1536 1539 1541 1543 1546 1547 1549 1550 1552 1553 1554 1555 1556 1557 1558 1558 1559 1559 1559 1559 1560 1560 1560 1560 1560 1560 1559 1559 1559 1559 1558 1558 1558 1557 1556 1556 1555 1554 1554 1553 1553 1553
1530 1533 1536 1538 1541 1543 1545 1547 1548 1549 1551 1552 1553 1553 1554 1555 1556 1556 1557 1557 1557 1557 1557 1557 1557 1558 1558 1557 1557 1557 1557 1557 1556 1556 1555 1554 1553 1553 1552 1552 1551 1551 1550